When you browse on this site, cookies collect data to enhance your experience and personalize the content and advertising you see.
Visit our Privacy Policy to learn more. By continuing to use the site, you agree to this use of cookies and data.
  • In Austria
  • List of Countries
  • For 7 days
  • Water Temperature
  • Weather Map
  • News
  • Weather Widgets
  • user-avatar
    Login

    Hourly Weather Booué

    Today, 18 January, Saturday

    Time Temperature Precipitation Wind Pressure Humidity
    00:00 +25°C° 0 mm 1 mps 735 mmHg 94%
    01:00 +24°C° 0 mm 1 mps 735 mmHg 94%
    02:00 +24°C° 0 mm 1 mps 734 mmHg 95%
    03:00 +22°C° 0 mm 0 mps 734 mmHg 96%
    04:00 +22°C° 0 mm 0 mps 734 mmHg 97%
    05:00 +22°C° 0 mm 0 mps 734 mmHg 97%
    06:00 +22°C° 0 mm 0 mps 734 mmHg 97%
    07:00 +22°C° 0 mm 0 mps 735 mmHg 96%
    08:00 +26°C° 0 mm 1 mps 735 mmHg 86%
    09:00 +28°C° 0 mm 1 mps 736 mmHg 75%
    10:00 +31°C° 0 mm 1 mps 736 mmHg 65%
    11:00 +31°C° 0.1 mm 1 mps 736 mmHg 65%
    12:00 +31°C° 0.1 mm 1 mps 735 mmHg 66%
    13:00 +31°C° 0.1 mm 1 mps 734 mmHg 66%
    14:00 +31°C° 0.1 mm 1 mps 733 mmHg 63%
    15:00 +32°C° 0.1 mm 1 mps 733 mmHg 61%
    16:00 +33°C° 0.1 mm 1 mps 732 mmHg 58%
    17:00 +31°C° 0.3 mm 1 mps 733 mmHg 67%
    18:00 +29°C° 0.3 mm 1 mps 733 mmHg 77%
    19:00 +27°C° 0.3 mm 1 mps 734 mmHg 86%
    20:00 +27°C° 0.3 mm 1 mps 734 mmHg 88%
    21:00 +26°C° 0.3 mm 1 mps 735 mmHg 89%
    22:00 +24°C° 0.3 mm 0 mps 735 mmHg 91%
    23:00 +25°C° 0 mm 1 mps 735 mmHg 92%

    Tomorrow, 19 January, Sunday

    Time Temperature Precipitation Wind Pressure Humidity
    00:00 +25°C° 0 mm 1 mps 735 mmHg 92%
    01:00 +25°C° 0 mm 1 mps 735 mmHg 93%
    02:00 +25°C° 0 mm 1 mps 734 mmHg 94%
    03:00 +22°C° 0 mm 0 mps 734 mmHg 95%
    04:00 +22°C° 0 mm 0 mps 733 mmHg 96%
    05:00 +22°C° 0 mm 0 mps 734 mmHg 95%
    06:00 +22°C° 0 mm 0 mps 734 mmHg 94%
    07:00 +23°C° 0 mm 0 mps 734 mmHg 94%
    08:00 +25°C° 0 mm 0 mps 735 mmHg 83%
    09:00 +27°C° 0 mm 0 mps 735 mmHg 73%
    10:00 +31°C° 0 mm 1 mps 736 mmHg 62%
    11:00 +32°C° 0 mm 1 mps 735 mmHg 58%
    12:00 +33°C° 0 mm 1 mps 734 mmHg 54%
    13:00 +34°C° 0 mm 1 mps 734 mmHg 51%
    14:00 +33°C° 0.2 mm 1 mps 733 mmHg 55%
    15:00 +33°C° 0.2 mm 1 mps 732 mmHg 58%
    16:00 +32°C° 0.2 mm 1 mps 731 mmHg 62%
    17:00 +30°C° 0.5 mm 1 mps 732 mmHg 70%
    18:00 +29°C° 0.5 mm 1 mps 732 mmHg 78%
    19:00 +25°C° 0.5 mm 0 mps 733 mmHg 86%
    20:00 +25°C° 0.3 mm 0 mps 733 mmHg 86%
    21:00 +24°C° 0.3 mm 0 mps 734 mmHg 87%
    22:00 +24°C° 0.3 mm 0 mps 734 mmHg 88%
    23:00 +24°C° 0.1 mm 0 mps 734 mmHg 88%

    Day after tomorrow, 20 January, Monday

    Time Temperature Precipitation Wind Pressure Humidity
    00:00 +24°C° 0.1 mm 0 mps 734 mmHg 89%
    01:00 +23°C° 0.1 mm 0 mps 734 mmHg 90%
    02:00 +23°C° 0 mm 0 mps 734 mmHg 91%
    03:00 +23°C° 0 mm 0 mps 733 mmHg 92%
    04:00 +23°C° 0 mm 0 mps 733 mmHg 92%
    05:00 +23°C° 0 mm 0 mps 733 mmHg 92%
    06:00 +23°C° 0 mm 0 mps 734 mmHg 92%
    07:00 +23°C° 0 mm 0 mps 734 mmHg 92%
    08:00 +25°C° 0 mm 0 mps 735 mmHg 82%
    09:00 +27°C° 0 mm 0 mps 735 mmHg 73%
    10:00 +31°C° 0 mm 1 mps 735 mmHg 64%
    11:00 +33°C° 0.1 mm 1 mps 735 mmHg 60%
    12:00 +34°C° 0.1 mm 1 mps 734 mmHg 56%
    13:00 +35°C° 0.1 mm 1 mps 733 mmHg 52%
    14:00 +34°C° 0.5 mm 1 mps 733 mmHg 54%
    15:00 +32°C° 0.5 mm 0 mps 732 mmHg 56%
    16:00 +31°C° 0.5 mm 0 mps 731 mmHg 58%
    17:00 +31°C° 0.6 mm 1 mps 731 mmHg 67%
    18:00 +29°C° 0.6 mm 1 mps 732 mmHg 77%
    19:00 +27°C° 0.6 mm 1 mps 732 mmHg 87%
    20:00 +27°C° 0 mm 1 mps 733 mmHg 88%
    21:00 +26°C° 0 mm 1 mps 733 mmHg 89%
    22:00 +26°C° 0 mm 1 mps 734 mmHg 90%
    23:00 +24°C° 0 mm 0 mps 734 mmHg 91%

    21 January, Tuesday

    Time Temperature Precipitation Wind Pressure Humidity
    00:00 +23°C° 0 mm 0 mps 733 mmHg 92%
    01:00 +23°C° 0 mm 0 mps 733 mmHg 93%
    02:00 +23°C° 0 mm 0 mps 733 mmHg 94%
    03:00 +23°C° 0 mm 0 mps 733 mmHg 95%
    04:00 +23°C° 0 mm 0 mps 732 mmHg 96%
    05:00 +23°C° 0 mm 0 mps 733 mmHg 95%
    06:00 +23°C° 0 mm 0 mps 734 mmHg 95%
    07:00 +23°C° 0 mm 0 mps 734 mmHg 94%
    08:00 +24°C° 0.3 mm 0 mps 735 mmHg 89%
    09:00 +28°C° 0.3 mm 1 mps 735 mmHg 84%
    10:00 +29°C° 0.3 mm 1 mps 735 mmHg 80%
    11:00 +30°C° 0.5 mm 1 mps 735 mmHg 73%
    12:00 +32°C° 0.5 mm 1 mps 734 mmHg 67%
    13:00 +33°C° 0.5 mm 1 mps 733 mmHg 60%
    14:00 +33°C° 0.4 mm 1 mps 733 mmHg 61%
    15:00 +33°C° 0.4 mm 1 mps 732 mmHg 62%
    16:00 +33°C° 0.4 mm 1 mps 732 mmHg 64%
    17:00 +31°C° 2.5 mm 1 mps 732 mmHg 73%
    18:00 +29°C° 2.5 mm 1 mps 733 mmHg 82%
    19:00 +27°C° 2.5 mm 1 mps 733 mmHg 91%
    20:00 +26°C° 0.3 mm 1 mps 734 mmHg 91%
    21:00 +26°C° 0.3 mm 1 mps 734 mmHg 91%
    22:00 +24°C° 0.3 mm 0 mps 734 mmHg 91%
    23:00 +26°C° 0 mm 1 mps 734 mmHg 92%

    22 January, Wednesday

    Time Temperature Precipitation Wind Pressure Humidity
    00:00 +25°C° 0 mm 1 mps 734 mmHg 93%
    01:00 +25°C° 0 mm 1 mps 734 mmHg 95%
    02:00 +25°C° 0 mm 1 mps 733 mmHg 96%
    03:00 +24°C° 0 mm 1 mps 733 mmHg 97%
    04:00 +22°C° 0 mm 0 mps 733 mmHg 98%
    05:00 +22°C° 0 mm 0 mps 733 mmHg 97%
    06:00 +22°C° 0 mm 0 mps 734 mmHg 97%
    07:00 +22°C° 0 mm 0 mps 734 mmHg 97%
    08:00 +26°C° 0 mm 1 mps 735 mmHg 89%
    09:00 +28°C° 0 mm 1 mps 735 mmHg 81%
    10:00 +30°C° 0 mm 1 mps 735 mmHg 73%
    11:00 +31°C° 0.1 mm 1 mps 735 mmHg 68%
    12:00 +32°C° 0.1 mm 1 mps 734 mmHg 63%
    13:00 +34°C° 0.1 mm 2 mps 733 mmHg 57%
    14:00 +33°C° 0.1 mm 1 mps 733 mmHg 58%
    15:00 +33°C° 0.1 mm 1 mps 732 mmHg 58%
    16:00 +33°C° 0.1 mm 1 mps 731 mmHg 59%
    17:00 +31°C° 0 mm 1 mps 731 mmHg 65%
    18:00 +30°C° 0 mm 1 mps 732 mmHg 72%
    19:00 +26°C° 0 mm 0 mps 732 mmHg 79%
    20:00 +25°C° 1.1 mm 0 mps 733 mmHg 83%
    21:00 +27°C° 1.1 mm 1 mps 733 mmHg 88%
    22:00 +26°C° 1.1 mm 1 mps 734 mmHg 93%
    23:00 +25°C° 0 mm 1 mps 734 mmHg 94%

    23 January, Thursday

    Time Temperature Precipitation Wind Pressure Humidity
    00:00 +25°C° 0 mm 1 mps 733 mmHg 94%
    01:00 +25°C° 0 mm 1 mps 733 mmHg 95%
    02:00 +25°C° 0 mm 1 mps 733 mmHg 96%
    03:00 +25°C° 0 mm 1 mps 733 mmHg 97%
    04:00 +24°C° 0 mm 1 mps 733 mmHg 98%
    05:00 +24°C° 0 mm 1 mps 733 mmHg 97%
    06:00 +22°C° 0 mm 0 mps 733 mmHg 97%
    07:00 +23°C° 0 mm 0 mps 734 mmHg 97%
    08:00 +26°C° 0 mm 1 mps 734 mmHg 90%
    09:00 +27°C° 0 mm 1 mps 734 mmHg 84%
    10:00 +29°C° 0 mm 2 mps 735 mmHg 78%
    11:00 +30°C° 0.2 mm 2 mps 734 mmHg 73%
    12:00 +31°C° 0.2 mm 2 mps 733 mmHg 67%
    13:00 +32°C° 0.2 mm 2 mps 732 mmHg 62%
    14:00 +32°C° 0.2 mm 1 mps 732 mmHg 61%
    15:00 +33°C° 0.2 mm 1 mps 731 mmHg 59%
    16:00 +33°C° 0.2 mm 1 mps 731 mmHg 58%
    17:00 +31°C° 0.1 mm 1 mps 731 mmHg 66%
    18:00 +29°C° 0.1 mm 1 mps 731 mmHg 75%
    19:00 +27°C° 0.1 mm 1 mps 731 mmHg 83%
    20:00 +27°C° 0 mm 1 mps 732 mmHg 86%
    21:00 +26°C° 0 mm 1 mps 732 mmHg 88%
    22:00 +26°C° 0 mm 1 mps 733 mmHg 90%
    23:00 +26°C° 0 mm 1 mps 733 mmHg 91%
    Show more